TimeCST,TemperatureF,Dew PointF,Humidity,Sea Level PressureIn,VisibilityMPH,Wind Direction,Wind SpeedMPH,Gust SpeedMPH,PrecipitationIn,Events,Conditions,WindDirDegrees,DateUTC
12:53 AM,53.1,46.0,77,29.94,10.0,South,3.5,-,0.01,,Clear,170,2013-02-05 06:53:00
1:53 AM,52.0,48.0,86,29.94,10.0,South,3.5,-,N/A,,Overcast,170,2013-02-05 07:53:00
2:35 AM,53.6,48.2,82,29.94,10.0,Calm,Calm,-,N/A,,Overcast,0,2013-02-05 08:35:00
2:53 AM,54.0,48.0,80,29.94,10.0,WSW,3.5,-,N/A,,Overcast,240,2013-02-05 08:53:00
3:53 AM,53.1,48.9,86,29.95,3.0,NNW,3.5,-,0.03,Rain,Heavy Rain,330,2013-02-05 09:53:00
4:53 AM,52.0,50.0,93,29.95,5.0,Calm,Calm,-,0.02,,Overcast,0,2013-02-05 10:53:00
5:53 AM,53.1,51.1,93,29.97,6.0,Calm,Calm,-,N/A,,Overcast,0,2013-02-05 11:53:00
6:27 AM,53.6,51.8,94,29.98,4.0,Calm,Calm,-,N/A,,Overcast,0,2013-02-05 12:27:00
6:53 AM,53.1,51.1,93,29.99,5.0,Calm,Calm,-,N/A,,Overcast,0,2013-02-05 12:53:00
7:36 AM,53.6,51.8,94,30.00,2.5,Calm,Calm,-,N/A,,Overcast,0,2013-02-05 13:36:00
7:53 AM,53.1,51.1,93,30.01,4.0,Calm,Calm,-,N/A,,Overcast,0,2013-02-05 13:53:00
8:53 AM,55.9,51.1,84,30.02,7.0,Calm,Calm,-,N/A,,Overcast,0,2013-02-05 14:53:00
9:53 AM,55.9,52.0,87,30.04,7.0,Calm,Calm,-,N/A,,Overcast,0,2013-02-05 15:53:00
10:53 AM,57.0,53.1,87,30.06,5.0,Calm,Calm,-,N/A,,Overcast,0,2013-02-05 16:53:00
11:53 AM,60.1,53.1,78,30.05,6.0,Calm,Calm,-,N/A,,Haze,0,2013-02-05 17:53:00
12:53 PM,62.1,53.1,72,30.03,7.0,Calm,Calm,-,N/A,,Overcast,0,2013-02-05 18:53:00
1:00 PM,62.6,53.6,72,30.03,7.0,Calm,Calm,-,N/A,,Overcast,0,2013-02-05 19:00:00
1:53 PM,62.1,53.1,72,30.01,7.0,Calm,Calm,-,N/A,,Overcast,0,2013-02-05 19:53:00
2:53 PM,62.1,54.0,75,30.01,7.0,SSE,3.5,-,N/A,,Overcast,150,2013-02-05 20:53:00
3:53 PM,64.0,54.0,70,30.01,6.0,Calm,Calm,-,N/A,,Haze,0,2013-02-05 21:53:00
4:16 PM,62.6,53.6,72,30.00,8.0,South,4.6,-,N/A,,Haze,170,2013-02-05 22:16:00
4:53 PM,63.0,53.1,70,30.00,8.0,Calm,Calm,-,N/A,,Clear,0,2013-02-05 22:53:00
5:53 PM,57.9,53.1,84,30.00,6.0,Calm,Calm,-,N/A,,Haze,0,2013-02-05 23:53:00
6:53 PM,52.0,50.0,93,30.03,5.0,Calm,Calm,-,N/A,,Clear,0,2013-02-06 00:53:00
7:27 PM,51.8,50.0,94,30.04,1.8,Calm,Calm,-,N/A,,Clear,0,2013-02-06 01:27:00
7:35 PM,50.0,48.2,94,30.04,6.0,Calm,Calm,-,N/A,,Haze,0,2013-02-06 01:35:00
7:53 PM,50.0,48.0,93,30.04,6.0,Calm,Calm,-,N/A,,Haze,0,2013-02-06 01:53:00
8:53 PM,48.0,46.9,96,30.06,7.0,Calm,Calm,-,N/A,,Mostly Cloudy,0,2013-02-06 02:53:00
9:08 PM,46.4,46.4,100,30.06,7.0,Calm,Calm,-,N/A,,Clear,0,2013-02-06 03:08:00
9:53 PM,46.9,46.0,97,30.07,7.0,Calm,Calm,-,N/A,,Clear,0,2013-02-06 03:53:00
10:00 PM,46.4,44.6,93,30.07,0.2,NNE,3.5,-,N/A,Fog,Fog,30,2013-02-06 04:00:00
10:35 PM,46.4,44.6,93,30.07,0.2,NNE,3.5,-,0.01,Fog,Fog,30,2013-02-06 04:35:00
10:53 PM,46.9,45.0,93,30.08,0.2,Calm,Calm,-,0.01,Fog,Fog,0,2013-02-06 04:53:00
11:53 PM,44.1,43.0,96,30.08,0.2,Calm,Calm,-,N/A,Fog,Fog,0,2013-02-06 05:53:00